Regional Weather Roundup
Issued by NWS Newport/Morehead, NC

Current Version | Previous Version | Text Only | Print | Product List | Glossary On
Versions: 1 2 3 4 5 6 7 8 9 10 11 12 13 14 15 16 17 18 19 20 21 22 23 24 25 26 27 28 29 30 31 32 33 34 35 36 37 38 39 40 41 42 43 44 45 46 47 48 49 50
000 ASUS42 KMHX 290622 RWRMHX WEATHER ROUNDUP FOR EASTERN NORTH CAROLINA NATIONAL WEATHER SERVICE NEWPORT/MOREHEAD CITY NC 200 AM EDT FRI AUG 29 2014 NOTE: "FAIR" INDICATES FEW OR NO CLOUDS BELOW 12,000 FEET WITH NO SIGNIFICANT WEATHER AND/OR OBSTRUCTIONS TO VISIBILITY NCZ015>017-031-032-045>047-102-103-290700- NORTH COAST CITY SKY/WX TMP DP RH WIND PRES REMARKS EDENTON CLOUDY 75 73 91 CALM 30.03F ELIZABETH CITY FAIR 75 71 87 E6 30.05S KITTY HAWK FAIR 75 72 88 CALM 30.04S MANTEO MOCLDY 75 72 91 E3 30.05S $$ NCZ045>047-081-094-103-104-290700- CENTRAL COAST CITY SKY/WX TMP DP RH WIND PRES REMARKS FRISCO FAIR 75 75 100 E5 30.04S FOG SWANQUARTER N/A 75 N/A N/A S3 30.00S $$ NCZ095-097-098-100-101-290700- SOUTHERN COAST CITY SKY/WX TMP DP RH WIND PRES REMARKS BEAUFORT FAIR 80 73 79 SW6 30.03F CEDAR ISLAND N/A 77 N/A N/A S7 30.06S JACKSONVILLE FAIR 73 69 87 CALM 30.03S NEWPORT NOT AVBL PINEY ISLAND FAIR 77 74 90 S5 30.03S WILMINGTON FAIR 74 69 85 S5 30.03S $$ NCZ011>013-027>030-043-044-078>080-089-090>093-098-290700- COASTAL PLAIN CITY SKY/WX TMP DP RH WIND PRES REMARKS AHOSKIE MOCLDY 73 70 89 N15G22 30.07R CLINTON NOT AVBL ELIZABETHTOWN FAIR 73 67 81 CALM 30.04S GOLDSBORO FAIR 76 74 96 S3 30.01S GREENVILLE FAIR 73 73 100 CALM 30.04S HAVELOCK FAIR 75 70 84 SW6 30.04S KENANSVILLE FAIR 73 68 85 CALM 30.04S KINSTON FAIR 74 70 85 SW3 30.03F NEW BERN FAIR 76 69 79 SW3 30.04S RICHLANDS FAIR 72 66 83 CALM 30.04S ROANOKE RAPIDS NOT AVBL ROCKY MOUNT FAIR 74 72 93 CALM 30.02S FOG WASHINGTON FAIR 73 72 96 CALM 30.03S WHITEVILLE FAIR 71 67 87 CALM 30.04R $$ AMZ130-135-150-152-154-156-158-170-250-252-270-ANZ085-086-088-633-658-670-290700- MARINE OBSERVATIONS STATION/POSITION TIME TEMP WIND PRES WAVE SWELL AIR SEA DIR/SP/G HT/PER HT/PER (UTC) (F) (DEG/KT/KT) (MB) (FT/S) (FT/S) CHESAPEAKE LIGHT 0600 75 80/ 12/ 13 1018.4 BUOY 44014 0600 76 75 60/ 8/ 8 1017.5 5/ 9 5/ 9 DUCK 0600 77 78 110/ 6/ 8 1016.7 2E DUCK 0600 N/A 3/10 2/11 OREGON INLET 0600 77 80 120/ 4/ 6 1017.3 BUOY 44095 0600 77 N/A 4/10 2/11 20E OREGON INLET NOT AVBL HATTERAS CG 0600 79 80 140/ 4/ 5 1017.5 DIAMOND BUOY 0600 80 330/ 2/ 4 1017.3 5/ 8 5/ 8 CAPE LOOKOUT 0600 80 230/ 6/ 8 1017.1 BEAUFORT LAB 0600 80 80 230/ 3/ 6 1016.5 30 SE NEW RIVER 0600 81 81 240/ 12/ 16 1017.4 5/ 9 5/ 9 5 SE WRIGHTSVILL 0600 77 81 230/ 14/ 16 N/A BUOY 41002 0510 81 81 250/ 2/ 4 1019.0 4/ 8 5/ 8 BUOY 41004 0600 82 83 180/ 10/ 12 1016.9 4/ 9 3/ 9 $$

USA.gov is the U.S. government's official web portal to all federal, state and local government web resources and services.